| time (UTC) | temp F | wind direction | speed knots | gust knots | rain 1hr in | rain 24hr in | rain mn in | humidity % | barometer mb |
| 20260502220332 | 75 | 54 | 0.0 | 0.9 | 0.00 | 0.00 | 0.00 | 43 | 1021.7 |
| 20260502215829 | 75 | 358 | 6.1 | 6.1 | 0.00 | 0.00 | 0.00 | 41 | 1021.7 |
| 20260502215327 | 75 | 50 | 0.0 | 0.9 | 0.00 | 0.00 | 0.00 | 40 | 1021.7 |
| 20260502214824 | 75 | 355 | 2.6 | 4.3 | 0.00 | 0.00 | 0.00 | 43 | 1021.7 |
| 20260502214320 | 75 | 266 | 0.9 | 1.7 | 0.00 | 0.00 | 0.00 | 42 | 1021.7 |
| 20260502213818 | 75 | 354 | 6.1 | 7.0 | 0.00 | 0.00 | 0.00 | 41 | 1021.7 |
| 20260502213315 | 75 | 3 | 4.3 | 5.2 | 0.00 | 0.00 | 0.00 | 41 | 1021.7 |
| 20260502212814 | 76 | 90 | 1.7 | 4.3 | 0.00 | 0.00 | 0.00 | 42 | 1021.7 |
| 20260502212312 | 75 | 240 | 0.0 | 0.9 | 0.00 | 0.00 | 0.00 | 42 | 1022.0 |
| 20260502211809 | 75 | 167 | 0.9 | 0.9 | 0.00 | 0.00 | 0.00 | 40 | 1022.0 |
| 20260502211304 | 75 | 301 | 1.7 | 2.6 | 0.00 | 0.00 | 0.00 | 40 | 1022.0 |
| 20260502210802 | 76 | 57 | 2.6 | 2.6 | 0.00 | 0.00 | 0.00 | 40 | 1021.7 |
| 20260502210259 | 75 | 10 | 1.7 | 1.7 | 0.00 | 0.00 | 0.00 | 41 | 1022.4 |
| 20260502205756 | 75 | 24 | 1.7 | 2.6 | 0.00 | 0.00 | 0.00 | 42 | 1022.4 |
| 20260502205251 | 75 | 16 | 4.3 | 5.2 | 0.00 | 0.00 | 0.00 | 41 | 1022.0 |
| 20260502204749 | 75 | 342 | 3.5 | 5.2 | 0.00 | 0.00 | 0.00 | 40 | 1022.4 |
| 20260502204246 | 75 | 43 | 0.0 | 0.9 | 0.00 | 0.00 | 0.00 | 41 | 1022.4 |
| 20260502203744 | 74 | 30 | 2.6 | 2.6 | 0.00 | 0.00 | 0.00 | 42 | 1022.4 |
| 20260502203242 | 75 | 52 | 0.9 | 1.7 | 0.00 | 0.00 | 0.00 | 40 | 1022.7 |
| 20260502202736 | 75 | 342 | 3.5 | 4.3 | 0.00 | 0.00 | 0.00 | 40 | 1022.4 |
| 20260502202234 | 75 | 6 | 2.6 | 5.2 | 0.00 | 0.00 | 0.00 | 43 | 1022.4 |
| 20260502201731 | 75 | 340 | 2.6 | 4.3 | 0.00 | 0.00 | 0.00 | 38 | 1022.4 |
| 20260502201228 | 76 | 94 | 0.9 | 0.9 | 0.00 | 0.00 | 0.00 | 41 | 1022.4 |
| 20260502200724 | 75 | 185 | 0.0 | 0.9 | 0.00 | 0.00 | 0.00 | 41 | 1022.7 |
| 20260502200220 | 76 | 50 | 1.7 | 1.7 | 0.00 | 0.00 | 0.00 | 40 | 1022.7 |
| 20260502195719 | 76 | 39 | 0.9 | 0.9 | 0.00 | 0.00 | 0.00 | 41 | 1022.7 |
| 20260502195215 | 74 | 52 | 0.0 | 0.9 | 0.00 | 0.00 | 0.00 | 44 | 1022.7 |
| 20260502194711 | 74 | 347 | 2.6 | 5.2 | 0.00 | 0.00 | 0.00 | 44 | 1023.1 |
| 20260502194209 | 75 | 15 | 0.0 | 0.9 | 0.00 | 0.00 | 0.00 | 40 | 1022.7 |
| 20260502193704 | 75 | 267 | 0.0 | 0.0 | 0.00 | 0.00 | 0.00 | 43 | 1022.7 |
| 20260502193202 | 75 | 330 | 3.5 | 4.3 | 0.00 | 0.00 | 0.00 | 46 | 1022.7 |
| 20260502192656 | 75 | 46 | 2.6 | 2.6 | 0.00 | 0.00 | 0.00 | 46 | 1022.7 |
| 20260502192155 | 74 | 3 | 0.0 | 0.9 | 0.00 | 0.00 | 0.00 | 50 | 1023.1 |
| 20260502191651 | 75 | 338 | 2.6 | 2.6 | 0.00 | 0.00 | 0.00 | 45 | 1022.7 |
| 20260502191149 | 74 | 338 | 2.6 | 2.6 | 0.00 | 0.00 | 0.00 | 47 | 1022.7 |
| 20260502190646 | 73 | 51 | 0.0 | 0.9 | 0.00 | 0.00 | 0.00 | 45 | 1022.7 |
| 20260502190144 | 74 | 352 | 1.7 | 2.6 | 0.00 | 0.00 | 0.00 | 47 | 1023.1 |
| 20260502185638 | 73 | 98 | 0.9 | 0.9 | 0.00 | 0.00 | 0.00 | 46 | 1023.1 |
| 20260502185135 | 73 | 339 | 2.6 | 4.3 | 0.00 | 0.00 | 0.00 | 48 | 1023.1 |
| 20260502184631 | 74 | 344 | 3.5 | 4.3 | 0.00 | 0.00 | 0.00 | 47 | 1023.1 |
| 20260502184121 | 73 | 357 | 0.9 | 0.9 | 0.00 | 0.00 | 0.00 | 49 | 1023.1 |
| 20260502183618 | 74 | 292 | 0.9 | 0.9 | 0.00 | 0.00 | 0.00 | 50 | 1023.1 |
| 20260502183114 | 73 | 65 | 0.9 | 1.7 | 0.00 | 0.00 | 0.00 | 45 | 1023.4 |
| 20260502182609 | 73 | 345 | 5.2 | 6.1 | 0.00 | 0.00 | 0.00 | 47 | 1023.4 |
| 20260502182105 | 73 | 312 | 1.7 | 1.7 | 0.00 | 0.00 | 0.00 | 49 | 1023.1 |
| 20260502181603 | 73 | 2 | 4.3 | 5.2 | 0.00 | 0.00 | 0.00 | 47 | 1023.4 |
| 20260502181102 | 73 | 282 | 1.7 | 1.7 | 0.00 | 0.00 | 0.00 | 50 | 1023.7 |
| 20260502180559 | 72 | 358 | 4.3 | 5.2 | 0.00 | 0.00 | 0.00 | 50 | 1023.7 |
| 20260502170512 | 71 | 327 | 4.3 | 5.2 | 0.00 | 0.00 | 0.00 | 53 | 1024.4 |
| 20260502163955 | 69 | 324 | 2.6 | 2.6 | 0.00 | 0.00 | 0.00 | 55 | 1024.4 |
| 20260502163451 | 68 | 346 | 2.6 | 2.6 | 0.00 | 0.00 | 0.00 | 56 | 1024.4 |
| 20260502162949 | 68 | 55 | 1.7 | 2.6 | 0.00 | 0.00 | 0.00 | 54 | 1024.7 |
| 20260502162445 | 69 | 319 | 1.7 | 1.7 | 0.00 | 0.00 | 0.00 | 54 | 1024.4 |
| 20260502161942 | 69 | 306 | 2.6 | 2.6 | 0.00 | 0.00 | 0.00 | 55 | 1024.4 |
| 20260502161439 | 69 | 343 | 0.9 | 0.9 | 0.00 | 0.00 | 0.00 | 57 | 1024.7 |
| 20260502160937 | 68 | 2 | 3.5 | 5.2 | 0.00 | 0.00 | 0.00 | 56 | 1024.7 |
| 20260502160435 | 68 | 27 | 2.6 | 2.6 | 0.00 | 0.00 | 0.00 | 57 | 1024.7 |
| 20260502151913 | 65 | 6 | 1.7 | 2.6 | 0.00 | 0.00 | 0.00 | 63 | 1024.4 |
| 20260502151409 | 64 | 359 | 2.6 | 2.6 | 0.00 | 0.00 | 0.00 | 63 | 1024.4 |
| 20260502150907 | 64 | 263 | 1.7 | 1.7 | 0.00 | 0.00 | 0.00 | 64 | 1024.4 |
| 20260502150403 | 63 | 0 | 3.5 | 4.3 | 0.00 | 0.00 | 0.00 | 64 | 1024.4 |
| 20260502130249 | 53 | 312 | 0.9 | 1.7 | 0.00 | 0.00 | 0.00 | 92 | 1023.4 |
| 20260502123735 | 51 | 301 | 0.9 | 0.9 | 0.00 | 0.00 | 0.00 | 96 | 1023.1 |
| 20260502123231 | 51 | 282 | 0.9 | 0.9 | 0.00 | 0.00 | 0.00 | 96 | 1022.7 |
| 20260502122728 | 51 | 292 | 0.9 | 0.9 | 0.00 | 0.00 | 0.00 | 96 | 1022.7 |
| 20260502122224 | 50 | 324 | 0.9 | 0.9 | 0.00 | 0.00 | 0.00 | 96 | 1022.7 |
| 20260502121723 | 50 | 303 | 0.9 | 1.7 | 0.00 | 0.00 | 0.00 | 96 | 1022.7 |
| 20260502121220 | 50 | 313 | 0.9 | 0.9 | 0.00 | 0.00 | 0.00 | 96 | 1022.4 |
| 20260502120716 | 50 | 306 | 0.9 | 0.9 | 0.00 | 0.00 | 0.00 | 96 | 1022.4 |
| 20260502120213 | 50 | 287 | 0.0 | 0.9 | 0.00 | 0.00 | 0.00 | 96 | 1022.4 |
| 20260502115711 | 49 | 279 | 0.0 | 0.9 | 0.00 | 0.00 | 0.00 | 96 | 1022.4 |
| 20260502115208 | 49 | 280 | 0.9 | 0.9 | 0.00 | 0.00 | 0.00 | 96 | 1022.4 |
| 20260502114703 | 49 | 267 | 0.0 | 0.0 | 0.00 | 0.00 | 0.00 | 95 | 1022.0 |
| 20260502114201 | 49 | 278 | 0.0 | 0.9 | 0.00 | 0.00 | 0.00 | 95 | 1022.0 |
| 20260502113658 | 49 | 299 | 0.0 | 0.9 | 0.00 | 0.00 | 0.00 | 95 | 1022.0 |
| 20260502113156 | 49 | 277 | 0.0 | 0.9 | 0.00 | 0.00 | 0.00 | 95 | 1022.0 |
| 20260502112653 | 49 | 262 | 0.0 | 0.0 | 0.00 | 0.00 | 0.00 | 95 | 1021.7 |
| 20260502112151 | 50 | 265 | 0.0 | 0.0 | 0.00 | 0.00 | 0.00 | 94 | 1021.7 |
| 20260502111648 | 50 | 272 | 0.0 | 0.0 | 0.00 | 0.00 | 0.00 | 94 | 1022.0 |
| 20260502111146 | 50 | 275 | 0.0 | 0.0 | 0.00 | 0.00 | 0.00 | 94 | 1021.7 |
| 20260502110643 | 50 | 270 | 0.0 | 0.0 | 0.00 | 0.00 | 0.00 | 94 | 1021.7 |
| 20260502110140 | 50 | 268 | 0.0 | 0.0 | 0.00 | 0.00 | 0.00 | 93 | 1021.7 |
| 20260502105638 | 50 | 265 | 0.0 | 0.0 | 0.00 | 0.00 | 0.00 | 93 | 1022.0 |
| 20260502105135 | 50 | 261 | 0.0 | 0.0 | 0.00 | 0.00 | 0.00 | 93 | 1021.7 |
| 20260502104632 | 50 | 255 | 0.0 | 0.0 | 0.00 | 0.00 | 0.00 | 92 | 1021.7 |
| 20260502104129 | 50 | 261 | 0.0 | 0.0 | 0.00 | 0.00 | 0.00 | 92 | 1021.7 |
| 20260502103627 | 51 | 262 | 0.0 | 0.0 | 0.00 | 0.00 | 0.00 | 91 | 1021.7 |
| 20260502103125 | 51 | 259 | 0.0 | 0.0 | 0.00 | 0.00 | 0.00 | 91 | 1021.4 |
| 20260502102621 | 51 | 308 | 0.9 | 0.9 | 0.00 | 0.00 | 0.00 | 91 | 1021.4 |
| 20260502102118 | 51 | 284 | 0.0 | 0.0 | 0.00 | 0.00 | 0.00 | 90 | 1021.0 |
| 20260502101616 | 51 | 289 | 0.0 | 0.9 | 0.00 | 0.00 | 0.00 | 90 | 1021.0 |
| 20260502101114 | 52 | 322 | 0.9 | 1.7 | 0.00 | 0.00 | 0.00 | 89 | 1020.7 |
| 20260502100612 | 52 | 320 | 1.7 | 1.7 | 0.00 | 0.00 | 0.00 | 89 | 1021.0 |
| 20260502100110 | 52 | 1 | 2.6 | 2.6 | 0.00 | 0.00 | 0.00 | 89 | 1020.7 |
| 20260502091044 | 52 | 343 | 1.7 | 1.7 | 0.00 | 0.00 | 0.00 | 91 | 1020.0 |
| 20260502090541 | 52 | 353 | 2.6 | 2.6 | 0.00 | 0.00 | 0.00 | 91 | 1020.0 |
| 20260502071435 | 53 | 301 | 0.9 | 0.9 | 0.00 | 0.00 | 0.00 | 91 | 1020.0 |
| 20260502070933 | 53 | 333 | 1.7 | 1.7 | 0.00 | 0.00 | 0.00 | 91 | 1019.7 |
| 20260502070431 | 53 | 307 | 0.9 | 0.9 | 0.00 | 0.00 | 0.00 | 91 | 1019.7 |
| 20260502065930 | 53 | 332 | 1.7 | 1.7 | 0.00 | 0.00 | 0.00 | 91 | 1019.7 |
| 20260502065428 | 53 | 347 | 1.7 | 1.7 | 0.00 | 0.00 | 0.00 | 91 | 1019.7 |
| 20260502064926 | 53 | 324 | 1.7 | 1.7 | 0.00 | 0.00 | 0.00 | 92 | 1019.7 |
| 20260502064423 | 53 | 311 | 1.7 | 1.7 | 0.00 | 0.00 | 0.00 | 93 | 1019.7 |
| 20260502063920 | 53 | 1 | 1.7 | 1.7 | 0.00 | 0.00 | 0.00 | 93 | 1019.7 |
| 20260502063418 | 53 | 312 | 1.7 | 1.7 | 0.00 | 0.00 | 0.00 | 93 | 1020.0 |
| 20260502062915 | 53 | 318 | 1.7 | 1.7 | 0.00 | 0.00 | 0.00 | 93 | 1020.3 |
| 20260502062412 | 53 | 331 | 0.9 | 1.7 | 0.00 | 0.00 | 0.00 | 94 | 1020.0 |
| 20260502061911 | 53 | 313 | 0.9 | 1.7 | 0.00 | 0.00 | 0.00 | 94 | 1020.0 |
| 20260502061409 | 53 | 327 | 0.9 | 1.7 | 0.00 | 0.00 | 0.00 | 94 | 1020.0 |
| 20260502060904 | 53 | 297 | 0.0 | 0.0 | 0.00 | 0.00 | 0.00 | 94 | 1020.3 |
| 20260502060359 | 53 | 281 | 0.0 | 0.9 | 0.00 | 0.00 | 0.00 | 94 | 1020.3 |
| 20260502055857 | 53 | 279 | 0.0 | 0.9 | 0.00 | 0.00 | 0.00 | 94 | 1020.3 |
| 20260502055354 | 53 | 279 | 0.0 | 0.9 | 0.00 | 0.00 | 0.00 | 94 | 1020.0 |
| 20260502054854 | 53 | 292 | 0.9 | 1.7 | 0.00 | 0.00 | 0.00 | 93 | 1020.3 |
| 20260502054351 | 53 | 321 | 0.9 | 1.7 | 0.00 | 0.00 | 0.00 | 93 | 1020.0 |
| 20260502053849 | 53 | 312 | 1.7 | 1.7 | 0.00 | 0.00 | 0.00 | 93 | 1020.3 |
| 20260502053346 | 53 | 313 | 0.9 | 0.9 | 0.00 | 0.00 | 0.00 | 93 | 1020.0 |
| 20260502052843 | 53 | 276 | 0.9 | 0.9 | 0.00 | 0.00 | 0.00 | 93 | 1020.0 |
| 20260502052341 | 53 | 317 | 0.9 | 0.9 | 0.00 | 0.00 | 0.00 | 93 | 1019.7 |
| 20260502051839 | 53 | 359 | 0.9 | 1.7 | 0.00 | 0.00 | 0.00 | 93 | 1019.7 |
| 20260502051337 | 54 | 294 | 0.9 | 0.9 | 0.00 | 0.00 | 0.00 | 93 | 1020.0 |
| 20260502050833 | 54 | 359 | 0.9 | 1.7 | 0.00 | 0.00 | 0.00 | 92 | 1019.7 |
| 20260502050330 | 54 | 331 | 0.9 | 1.7 | 0.00 | 0.00 | 0.00 | 92 | 1019.7 |
| 20260502045827 | 54 | 296 | 0.9 | 0.9 | 0.00 | 1.58 | 1.58 | 92 | 1019.7 |
| 20260502045323 | 54 | 302 | 0.9 | 0.9 | 0.00 | 1.58 | 1.58 | 91 | 1019.7 |
| 20260502044821 | 54 | 328 | 0.9 | 0.9 | 0.00 | 1.58 | 1.58 | 91 | 1019.7 |
| 20260502044317 | 54 | 301 | 1.7 | 1.7 | 0.00 | 1.58 | 1.58 | 91 | 1019.7 |
| 20260502043814 | 55 | 323 | 0.9 | 1.7 | 0.00 | 1.58 | 1.58 | 90 | 1019.7 |
| 20260502043312 | 55 | 284 | 0.9 | 0.9 | 0.00 | 1.58 | 1.58 | 90 | 1020.0 |
| 20260502042811 | 55 | 336 | 1.7 | 1.7 | 0.00 | 1.58 | 1.58 | 89 | 1020.0 |
| 20260502042309 | 55 | 342 | 2.6 | 2.6 | 0.00 | 1.58 | 1.58 | 89 | 1019.7 |
| 20260502041806 | 55 | 323 | 1.7 | 2.6 | 0.00 | 1.58 | 1.58 | 88 | 1019.7 |
| 20260502041303 | 55 | 40 | 3.5 | 5.2 | 0.00 | 1.58 | 1.58 | 88 | 1019.7 |
| 20260502040800 | 55 | 343 | 4.3 | 4.3 | 0.00 | 1.58 | 1.58 | 88 | 1019.7 |
| 20260502040257 | 55 | 18 | 4.3 | 5.2 | 0.00 | 1.58 | 1.58 | 88 | 1019.7 |
| 20260502035753 | 55 | 290 | 2.6 | 2.6 | 0.00 | 1.58 | 1.58 | 87 | 1020.0 |
| 20260502035250 | 55 | 349 | 2.6 | 2.6 | 0.00 | 1.58 | 1.58 | 87 | 1019.7 |
| 20260502034747 | 55 | 349 | 3.5 | 4.3 | 0.00 | 1.58 | 1.58 | 86 | 1020.0 |
| 20260502034245 | 55 | 1 | 4.3 | 5.2 | 0.00 | 1.58 | 1.58 | 86 | 1020.0 |
| 20260502033743 | 55 | 8 | 2.6 | 5.2 | 0.00 | 1.58 | 1.58 | 85 | 1019.7 |
| 20260502033241 | 55 | 3 | 3.5 | 4.3 | 0.00 | 1.58 | 1.58 | 86 | 1019.7 |
| 20260502032737 | 55 | 47 | 4.3 | 6.1 | 0.00 | 1.58 | 1.58 | 86 | 1019.7 |
| 20260502032233 | 55 | 353 | 3.5 | 4.3 | 0.00 | 1.58 | 1.58 | 87 | 1019.3 |
| 20260502031732 | 55 | 338 | 1.7 | 2.6 | 0.00 | 1.58 | 1.58 | 88 | 1019.7 |
| 20260502031229 | 55 | 348 | 4.3 | 6.1 | 0.00 | 1.58 | 1.58 | 88 | 1019.7 |
| 20260502030728 | 55 | 13 | 3.5 | 4.3 | 0.00 | 1.58 | 1.58 | 87 | 1019.7 |
| 20260502030225 | 55 | 13 | 0.9 | 1.7 | 0.00 | 1.58 | 1.58 | 86 | 1019.3 |
| 20260502025722 | 55 | 4 | 2.6 | 4.3 | 0.00 | 1.58 | 1.58 | 86 | 1019.3 |
| 20260502025220 | 55 | 19 | 2.6 | 4.3 | 0.00 | 1.58 | 1.58 | 89 | 1019.3 |
| 20260502024717 | 55 | 66 | 4.3 | 6.1 | 0.00 | 1.58 | 1.58 | 89 | 1018.9 |
| 20260502024215 | 55 | 359 | 1.7 | 2.6 | 0.00 | 1.58 | 1.58 | 90 | 1018.9 |
| 20260502023713 | 55 | 332 | 1.7 | 2.6 | 0.00 | 1.58 | 1.58 | 90 | 1018.9 |
| 20260502023210 | 55 | 348 | 3.5 | 4.3 | 0.00 | 1.58 | 1.58 | 90 | 1018.5 |
| 20260502022708 | 55 | 21 | 2.6 | 4.3 | 0.00 | 1.58 | 1.58 | 90 | 1018.5 |
| 20260502022204 | 55 | 317 | 1.7 | 1.7 | 0.00 | 1.58 | 1.58 | 90 | 1018.5 |
| 20260502021701 | 55 | 25 | 0.0 | 0.9 | 0.00 | 1.58 | 1.58 | 90 | 1018.5 |
| 20260502021159 | 55 | 8 | 5.2 | 7.0 | 0.00 | 1.58 | 1.58 | 90 | 1018.5 |
| 20260502020655 | 55 | 352 | 3.5 | 5.2 | 0.00 | 1.58 | 1.58 | 90 | 1018.2 |
| 20260502020152 | 55 | 349 | 3.5 | 5.2 | 0.00 | 1.58 | 1.58 | 91 | 1018.2 |
| 20260502015651 | 55 | 221 | 1.7 | 2.6 | 0.00 | 1.58 | 1.58 | 92 | 1018.2 |
| 20260502015146 | 55 | 359 | 3.5 | 5.2 | 0.00 | 1.58 | 1.58 | 93 | 1018.2 |
| 20260502014644 | 55 | 346 | 2.6 | 2.6 | 0.00 | 1.58 | 1.58 | 94 | 1018.2 |
| 20260502014141 | 55 | 28 | 0.0 | 0.9 | 0.00 | 1.58 | 1.58 | 94 | 1017.5 |
| 20260502013637 | 55 | 352 | 2.6 | 2.6 | 0.00 | 1.58 | 1.58 | 94 | 1017.9 |
| 20260502013132 | 55 | 345 | 4.3 | 5.2 | 0.00 | 1.58 | 1.58 | 95 | 1017.5 |
| 20260502012630 | 55 | 2 | 5.2 | 6.1 | 0.00 | 1.58 | 1.58 | 95 | 1017.9 |
| 20260502012128 | 55 | 358 | 5.2 | 6.1 | 0.00 | 1.58 | 1.58 | 95 | 1017.5 |
| 20260502011624 | 55 | 9 | 2.6 | 4.3 | 0.00 | 1.58 | 1.58 | 95 | 1017.2 |
| 20260502011120 | 55 | 48 | 4.3 | 6.1 | 0.00 | 1.58 | 1.58 | 95 | 1017.2 |
| 20260502010618 | 55 | 355 | 5.2 | 6.1 | 0.00 | 1.58 | 1.58 | 95 | 1017.2 |
| 20260502010114 | 55 | 357 | 2.6 | 4.3 | 0.00 | 1.58 | 1.58 | 95 | 1017.5 |
| 20260502005612 | 55 | 346 | 2.6 | 4.3 | 0.01 | 1.58 | 1.58 | 95 | 1017.2 |
| 20260502005110 | 55 | 301 | 1.7 | 1.7 | 0.01 | 1.58 | 1.58 | 95 | 1016.9 |
| 20260502004605 | 55 | 12 | 6.1 | 7.0 | 0.01 | 1.58 | 1.58 | 96 | 1017.2 |
| 20260502004102 | 55 | 12 | 5.2 | 7.0 | 0.00 | 1.57 | 1.57 | 96 | 1017.2 |
| 20260502003600 | 55 | 20 | 6.1 | 7.0 | 0.00 | 1.57 | 1.57 | 96 | 1016.5 |
| 20260502003057 | 55 | 12 | 4.3 | 6.1 | 0.00 | 1.57 | 1.57 | 96 | 1016.5 |
| 20260502002553 | 55 | 10 | 6.1 | 7.0 | 0.00 | 1.57 | 1.57 | 96 | 1016.2 |
| 20260502002050 | 55 | 5 | 5.2 | 7.0 | 0.00 | 1.57 | 1.57 | 96 | 1016.2 |
| 20260502001548 | 55 | 355 | 4.3 | 5.2 | 0.00 | 1.57 | 1.57 | 96 | 1016.2 |
| 20260502001045 | 55 | 4 | 7.0 | 8.7 | 0.00 | 1.57 | 1.57 | 96 | 1016.2 |
| 20260502000543 | 55 | 3 | 7.0 | 8.7 | 0.00 | 1.57 | 1.57 | 96 | 1015.5 |
| 20260502000040 | 55 | 330 | 7.8 | 8.7 | 0.00 | 1.57 | 1.57 | 96 | 1015.5 |
| 20260501235536 | 55 | 6 | 3.5 | 5.2 | 0.00 | 1.57 | 1.57 | 96 | 1016.2 |
| 20260501235032 | 55 | 39 | 12.2 | 15.6 | 0.00 | 1.57 | 1.57 | 96 | 1016.2 |
| 20260501234528 | 56 | 16 | 6.1 | 9.6 | 0.00 | 1.57 | 1.57 | 96 | 1016.2 |
| 20260501234026 | 56 | 16 | 4.3 | 5.2 | 0.00 | 1.57 | 1.57 | 96 | 1016.2 |
| 20260501233524 | 56 | 342 | 4.3 | 5.2 | 0.00 | 1.57 | 1.57 | 96 | 1016.2 |
| 20260501233020 | 56 | 306 | 2.6 | 4.3 | 0.00 | 1.57 | 1.57 | 96 | 1015.8 |
| 20260501232516 | 56 | 4 | 7.8 | 9.6 | 0.00 | 1.57 | 1.57 | 96 | 1016.2 |
| 20260501232014 | 56 | 34 | 6.1 | 8.7 | 0.00 | 1.57 | 1.57 | 97 | 1015.8 |
| 20260501231512 | 56 | 340 | 5.2 | 6.1 | 0.00 | 1.57 | 1.57 | 97 | 1015.8 |
| 20260501231010 | 56 | 1 | 6.1 | 7.8 | 0.00 | 1.57 | 1.57 | 97 | 1015.5 |
| 20260501230509 | 56 | 357 | 6.1 | 6.1 | 0.00 | 1.57 | 1.57 | 97 | 1015.8 |
| 20260501230006 | 56 | 349 | 3.5 | 5.2 | 0.06 | 1.57 | 1.57 | 97 | 1015.5 |
| 20260501225503 | 56 | 12 | 5.2 | 7.0 | 0.06 | 1.57 | 1.57 | 97 | 1015.5 |
| 20260501224959 | 56 | 22 | 8.7 | 11.3 | 0.06 | 1.57 | 1.57 | 97 | 1015.5 |
| 20260501224457 | 57 | 13 | 7.0 | 7.8 | 0.06 | 1.57 | 1.57 | 97 | 1015.2 |
| 20260501223953 | 56 | 48 | 7.8 | 8.7 | 0.06 | 1.57 | 1.57 | 97 | 1015.2 |
| 20260501223450 | 57 | 357 | 4.3 | 5.2 | 0.06 | 1.57 | 1.57 | 97 | 1015.8 |
| 20260501222945 | 57 | 40 | 4.3 | 7.8 | 0.05 | 1.56 | 1.56 | 97 | 1015.5 |
| 20260501222443 | 57 | 352 | 4.3 | 6.1 | 0.05 | 1.56 | 1.56 | 97 | 1015.2 |
| 20260501221939 | 57 | 6 | 5.2 | 7.8 | 0.04 | 1.55 | 1.55 | 97 | 1015.2 |
| 20260501221436 | 57 | 5 | 3.5 | 4.3 | 0.02 | 1.53 | 1.53 | 97 | 1015.2 |
| 20260501220934 | 57 | 6 | 4.3 | 5.2 | 0.01 | 1.52 | 1.52 | 97 | 1015.2 |